Flag for Brazil Weather past 2 weeks in Campo Grande, Mato Grosso Do Sul, Brazil

Now
72 °F

Clear.


Feels Like: 71 °F
Forecast: 71 / 83 °F
Wind: 8 mph from East

Location: Campo Grande Aeroporto

Current Time: Mar 2, 2015 at 4:24:35 AM

Latest Report: Mar 2, 2015 at 4:00 AM


Visibility: 10 mi

Pressure: 29.92 "Hg

Humidity: 83%

Dew point: 66 °F

Location of Campo GrandeLocation

Historic Weather in Campo Grande — Graph

°F

Campo Grande temperature yesterday

Maximum temperature yesterday: 88 °F (at 1:00 PM)
Minimum temperature yesterday: 70 °F (at 12:00 AM)
Average temperature yesterday: 78 °F

Past Weeks' High & Low Weather Summary

 TemperatureHumidityPressure
High93 °F (Feb 23, 2:00 PM)100% (Feb 16, 2:00 PM)30.07 "Hg (Feb 16, 2:00 PM)
Low34 °F (Feb 24, 1:00 AM)29% (Feb 20, 4:00 AM)29.71 "Hg (Feb 23, 6:00 AM)
Average75 °F81%29.94 "Hg
* Reported Feb 15 4:00 AM — Mar 2 3:00 AM, Campo Grande, Weather by CustomWeather, © 2015

Note: Actual official high and low records may vary slightly from our data, if they occured in-between our weather recording intervals... More about our weather records

Advertising

Campo Grande weather history for previous 24 hours

 ConditionsComfort  
Time TempWeatherWind HumidityBarometerVisibility
3:00 AM
Mon, Mar 2
72 °FClear.8 mph83%29.92 "Hg10 mi
2:00 AM73 °FClear.8 mph83%29.92 "Hg10 mi
1:00 AM75 °FClear.9 mph78%29.95 "Hg10 mi
12:00 AM77 °FClear.9 mph74%29.95 "Hg10 mi
11:00 PM
Sun, Mar 1
77 °FPassing clouds.7 mph74%29.98 "HgN/A
10:00 PM79 °FPassing clouds.7 mph70%29.98 "HgN/A
9:00 PM79 °FPassing clouds.5 mph74%29.98 "HgN/A
8:00 PM79 °FPassing clouds.6 mph74%29.95 "HgN/A
7:00 PM79 °FPassing clouds.2 mph79%29.92 "HgN/A
6:00 PM82 °FPartly cloudy.6 mph66%29.89 "HgN/A
5:00 PM86 °FBroken clouds.2 mph59%29.89 "HgN/A
4:00 PM82 °FBroken clouds.3 mph66%29.86 "HgN/A
3:00 PM79 °FPartly sunny.9 mph70%29.89 "HgN/A
2:00 PM86 °FPartly sunny.10 mph55%29.92 "HgN/A
1:00 PM88 °FScattered showers. Partly sunny.6 mph55%29.95 "HgN/A
12:00 PM86 °FPartly sunny.9 mph59%29.98 "HgN/A
11:00 AM84 °FScattered clouds.12 mph62%30.01 "HgN/A
10:00 AM82 °FScattered clouds.12 mph70%30.01 "HgN/A
9:00 AM79 °FScattered clouds.12 mph79%30.01 "HgN/A
8:00 AM77 °FScattered clouds.10 mph79%30.01 "HgN/A
7:00 AM73 °FSunny.9 mph83%29.98 "Hg10 mi
6:00 AM72 °FSunny.8 mph88%29.95 "Hg10 mi
5:00 AM70 °FSunny.6 mph94%29.95 "Hg10 mi
4:00 AM70 °FClear.No wind94%29.92 "Hg10 mi
Weather by CustomWeather, © 2015

See weather overviewHow to use our weather pages